Time,TemperatureF,DewpointF,PressureIn,WindDirection,WindDirectionDegrees,WindSpeedMPH,WindSpeedGustMPH,Humidity,HourlyPrecipIn,Conditions,Clouds,dailyrainin,SoftwareType,DateUTC
2013-01-27 00:00:00,14.2,5.6,30.29,NW,308,6.0,14.0,68,0.00,,,0.00,Wunderground v.1.15,2013-01-27 05:00:00,
2013-01-27 00:06:00,14.8,5.8,30.29,NW,318,8.0,8.0,67,0.00,,,0.00,Wunderground v.1.15,2013-01-27 05:06:00,
2013-01-27 00:09:00,15.0,5.7,30.29,WNW,294,7.0,8.0,66,0.00,,,0.00,Wunderground v.1.15,2013-01-27 05:09:00,
2013-01-27 00:15:00,15.2,5.5,30.29,NW,313,6.0,7.0,65,0.00,,,0.00,Wunderground v.1.15,2013-01-27 05:15:00,
2013-01-27 00:21:00,15.4,5.7,30.29,WNW,300,5.0,6.0,65,0.00,,,0.00,Wunderground v.1.15,2013-01-27 05:21:00,
2013-01-27 00:27:00,15.5,5.8,30.29,NW,309,4.0,6.0,65,0.00,,,0.00,Wunderground v.1.15,2013-01-27 05:27:00,
2013-01-27 00:33:00,15.5,5.8,30.29,NW,321,4.0,4.0,65,0.00,,,0.00,Wunderground v.1.15,2013-01-27 05:33:00,
2013-01-27 00:38:00,15.5,5.8,30.30,NW,323,2.0,5.0,65,0.00,,,0.00,Wunderground v.1.15,2013-01-27 05:38:00,
2013-01-27 00:44:00,15.5,5.8,30.30,NNW,333,4.0,4.0,65,0.00,,,0.00,Wunderground v.1.15,2013-01-27 05:44:00,
2013-01-27 00:50:00,15.4,5.7,30.30,NNW,336,3.0,3.0,65,0.00,,,0.00,Wunderground v.1.15,2013-01-27 05:50:00,
2013-01-27 00:56:00,15.2,5.9,30.30,NNW,336,3.0,4.0,66,0.00,,,0.00,Wunderground v.1.15,2013-01-27 05:56:00,
2013-01-27 01:02:00,15.2,5.9,30.30,NW,317,4.0,4.0,66,0.00,,,0.00,Wunderground v.1.15,2013-01-27 06:02:00,
2013-01-27 01:08:00,15.2,5.9,30.30,NE,39,0.0,4.0,66,0.00,,,0.00,Wunderground v.1.15,2013-01-27 06:08:00,
2013-01-27 01:13:00,14.5,4.9,30.30,NE,39,1.0,1.0,65,0.00,,,0.00,Wunderground v.1.15,2013-01-27 06:13:00,
2013-01-27 01:19:00,13.4,4.5,30.30,ESE,102,2.0,2.0,67,0.00,,,0.00,Wunderground v.1.15,2013-01-27 06:19:00,
2013-01-27 01:25:00,12.6,4.0,30.30,ESE,104,2.0,2.0,68,0.00,,,0.00,Wunderground v.1.15,2013-01-27 06:25:00,
2013-01-27 01:31:00,12.4,4.5,30.30,ESE,104,2.0,2.0,70,0.00,,,0.00,Wunderground v.1.15,2013-01-27 06:31:00,
2013-01-27 01:37:00,12.7,4.8,30.31,ESE,104,2.0,2.0,70,0.00,,,0.00,Wunderground v.1.15,2013-01-27 06:37:00,
2013-01-27 01:43:00,13.0,4.7,30.31,ESE,104,1.0,1.0,69,0.00,,,0.00,Wunderground v.1.15,2013-01-27 06:43:00,
2013-01-27 01:49:00,13.0,4.7,30.31,ESE,104,0.0,2.0,69,0.00,,,0.00,Wunderground v.1.15,2013-01-27 06:49:00,
2013-01-27 01:54:00,13.2,5.2,30.31,South,188,1.0,3.0,70,0.00,,,0.00,Wunderground v.1.15,2013-01-27 06:54:00,
2013-01-27 02:00:00,13.3,5.0,30.31,South,188,0.0,1.0,69,0.00,,,0.00,Wunderground v.1.15,2013-01-27 07:00:00,
2013-01-27 02:05:00,13.6,5.6,30.31,South,188,0.0,2.0,70,0.00,,,0.00,Wunderground v.1.15,2013-01-27 07:05:00,
2013-01-27 02:13:00,14.3,6.3,30.31,South,188,1.0,3.0,70,0.00,,,0.00,Wunderground v.1.15,2013-01-27 07:13:00,
2013-01-27 02:18:00,14.5,6.2,30.32,South,189,0.0,3.0,69,0.00,,,0.00,Wunderground v.1.15,2013-01-27 07:18:00,
2013-01-27 02:23:00,14.5,6.2,30.32,South,188,1.0,2.0,69,0.00,,,0.00,Wunderground v.1.15,2013-01-27 07:23:00,
2013-01-27 02:28:00,14.5,6.2,30.32,South,188,1.0,2.0,69,0.00,,,0.00,Wunderground v.1.15,2013-01-27 07:28:00,
2013-01-27 02:33:00,14.3,5.7,30.33,South,188,1.0,2.0,68,0.00,,,0.00,Wunderground v.1.15,2013-01-27 07:33:00,
2013-01-27 02:38:00,14.0,7.8,30.33,South,188,3.0,3.0,76,0.00,,,0.00,Wunderground v.1.15,2013-01-27 07:38:00,
2013-01-27 02:43:00,13.9,5.9,30.33,South,189,2.0,4.0,70,0.00,,,0.00,Wunderground v.1.15,2013-01-27 07:43:00,
2013-01-27 02:48:00,13.9,5.9,30.33,South,189,2.0,4.0,70,0.00,,,0.00,Wunderground v.1.15,2013-01-27 07:48:00,
2013-01-27 02:53:00,14.2,6.2,30.33,South,188,3.0,4.0,70,0.00,,,0.00,Wunderground v.1.15,2013-01-27 07:53:00,
2013-01-27 02:58:00,14.4,6.4,30.33,South,186,1.0,4.0,70,0.00,,,0.00,Wunderground v.1.15,2013-01-27 07:58:00,
2013-01-27 03:03:00,14.4,6.4,30.33,South,186,3.0,3.0,70,0.00,,,0.00,Wunderground v.1.15,2013-01-27 08:03:00,
2013-01-27 03:08:00,14.3,6.3,30.33,South,186,3.0,3.0,70,0.00,,,0.00,Wunderground v.1.15,2013-01-27 08:08:00,
2013-01-27 03:13:00,14.2,6.2,30.33,South,186,3.0,4.0,70,0.00,,,0.00,Wunderground v.1.15,2013-01-27 08:13:00,
2013-01-27 03:18:00,14.3,6.6,30.33,South,188,2.0,4.0,71,0.00,,,0.00,Wunderground v.1.15,2013-01-27 08:18:00,
2013-01-27 03:23:00,14.4,6.7,30.33,North,355,3.0,6.0,71,0.00,,,0.00,Wunderground v.1.15,2013-01-27 08:23:00,
2013-01-27 03:28:00,14.5,6.8,30.33,NNW,346,2.0,6.0,71,0.00,,,0.00,Wunderground v.1.15,2013-01-27 08:28:00,
2013-01-27 03:33:00,14.6,6.9,30.33,NNW,348,3.0,5.0,71,0.00,,,0.00,Wunderground v.1.15,2013-01-27 08:33:00,
2013-01-27 03:38:00,14.7,7.0,30.33,NNW,348,2.0,5.0,71,0.00,,,0.00,Wunderground v.1.15,2013-01-27 08:38:00,
2013-01-27 03:43:00,14.8,7.4,30.33,North,360,2.0,6.0,72,0.00,,,0.00,Wunderground v.1.15,2013-01-27 08:43:00,
2013-01-27 03:48:00,14.6,7.2,30.33,NNW,337,4.0,6.0,72,0.00,,,0.00,Wunderground v.1.15,2013-01-27 08:48:00,
2013-01-27 03:53:00,14.4,7.0,30.33,NNW,337,1.0,4.0,72,0.00,,,0.00,Wunderground v.1.15,2013-01-27 08:53:00,
2013-01-27 03:59:00,14.1,7.0,30.33,NNW,337,2.0,4.0,73,0.00,,,0.00,Wunderground v.1.15,2013-01-27 08:59:00,
2013-01-27 04:04:00,13.9,6.8,30.33,NNW,337,2.0,4.0,73,0.00,,,0.00,Wunderground v.1.15,2013-01-27 09:04:00,
2013-01-27 04:09:00,13.9,7.1,30.33,NNW,337,0.0,4.0,74,0.00,,,0.00,Wunderground v.1.15,2013-01-27 09:09:00,
2013-01-27 04:14:00,14.0,7.2,30.34,NNW,337,0.0,2.0,74,0.00,,,0.00,Wunderground v.1.15,2013-01-27 09:14:00,
2013-01-27 04:19:00,14.1,7.3,30.33,NNW,337,0.0,2.0,74,0.00,,,0.00,Wunderground v.1.15,2013-01-27 09:19:00,
2013-01-27 04:24:00,13.5,6.1,30.34,NNW,337,0.0,2.0,72,0.00,,,0.00,Wunderground v.1.15,2013-01-27 09:24:00,
2013-01-27 04:29:00,13.3,6.9,30.34,NNW,337,0.0,2.0,75,0.00,,,0.00,Wunderground v.1.15,2013-01-27 09:29:00,
2013-01-27 04:34:00,13.2,6.5,30.34,NNW,337,0.0,0.0,74,0.00,,,0.00,Wunderground v.1.15,2013-01-27 09:34:00,
2013-01-27 04:39:00,12.8,6.1,30.34,NNW,337,1.0,2.0,74,0.00,,,0.00,Wunderground v.1.15,2013-01-27 09:39:00,
2013-01-27 04:44:00,12.5,6.1,30.34,NNW,337,1.0,2.0,75,0.00,,,0.00,Wunderground v.1.15,2013-01-27 09:44:00,
2013-01-27 04:49:00,12.3,6.2,30.34,NNW,337,1.0,2.0,76,0.00,,,0.00,Wunderground v.1.15,2013-01-27 09:49:00,
2013-01-27 04:54:00,12.3,6.2,30.34,NNW,337,0.0,2.0,76,0.00,,,0.00,Wunderground v.1.15,2013-01-27 09:54:00,
2013-01-27 04:59:00,12.2,6.1,30.34,NNW,337,0.0,2.0,76,0.00,,,0.00,Wunderground v.1.15,2013-01-27 09:59:00,
2013-01-27 05:04:00,12.1,6.0,30.34,NNW,337,2.0,2.0,76,0.00,,,0.00,Wunderground v.1.15,2013-01-27 10:04:00,
2013-01-27 05:09:00,12.0,6.2,30.34,NNW,337,1.0,3.0,77,0.00,,,0.00,Wunderground v.1.15,2013-01-27 10:09:00,
2013-01-27 05:14:00,12.2,6.7,30.34,NNW,337,0.0,2.0,78,0.00,,,0.00,Wunderground v.1.15,2013-01-27 10:14:00,
2013-01-27 05:19:00,12.2,6.4,30.34,NNW,337,0.0,2.0,77,0.00,,,0.00,Wunderground v.1.15,2013-01-27 10:19:00,
2013-01-27 05:24:00,12.2,6.7,30.35,NNW,337,0.0,1.0,78,0.00,,,0.00,Wunderground v.1.15,2013-01-27 10:24:00,
2013-01-27 05:29:00,12.2,6.4,30.35,NNW,337,0.0,1.0,77,0.00,,,0.00,Wunderground v.1.15,2013-01-27 10:29:00,
2013-01-27 05:34:00,12.1,6.6,30.35,NNW,337,1.0,3.0,78,0.00,,,0.00,Wunderground v.1.15,2013-01-27 10:34:00,
2013-01-27 05:39:00,12.3,7.0,30.35,NNW,337,1.0,3.0,79,0.00,,,0.00,Wunderground v.1.15,2013-01-27 10:39:00,
2013-01-27 05:44:00,12.5,7.2,30.35,NNW,337,1.0,2.0,79,0.00,,,0.00,Wunderground v.1.15,2013-01-27 10:44:00,
2013-01-27 05:49:00,12.6,7.3,30.35,NNW,337,2.0,3.0,79,0.00,,,0.00,Wunderground v.1.15,2013-01-27 10:49:00,
2013-01-27 05:54:00,12.7,7.4,30.36,NNW,337,1.0,2.0,79,0.00,,,0.00,Wunderground v.1.15,2013-01-27 10:54:00,
2013-01-27 05:59:00,12.7,7.4,30.36,NNW,337,1.0,3.0,79,0.00,,,0.00,Wunderground v.1.15,2013-01-27 10:59:00,
2013-01-27 06:04:00,12.8,7.5,30.36,NNW,337,2.0,3.0,79,0.00,,,0.00,Wunderground v.1.15,2013-01-27 11:04:00,
2013-01-27 06:09:00,12.8,7.5,30.36,NNW,337,3.0,3.0,79,0.00,,,0.00,Wunderground v.1.15,2013-01-27 11:09:00,
2013-01-27 06:14:00,12.8,7.5,30.36,NNW,337,3.0,3.0,79,0.00,,,0.00,Wunderground v.1.15,2013-01-27 11:14:00,
2013-01-27 06:19:00,12.7,7.4,30.37,NNW,337,1.0,3.0,79,0.00,,,0.00,Wunderground v.1.15,2013-01-27 11:19:00,
2013-01-27 06:24:00,12.6,7.3,30.37,NNW,337,2.0,3.0,79,0.00,,,0.00,Wunderground v.1.15,2013-01-27 11:24:00,
2013-01-27 06:29:00,12.3,6.7,30.38,NNW,337,1.0,4.0,78,0.00,,,0.00,Wunderground v.1.15,2013-01-27 11:29:00,
2013-01-27 06:34:00,11.9,6.6,30.37,NNW,337,2.0,3.0,79,0.00,,,0.00,Wunderground v.1.15,2013-01-27 11:34:00,
2013-01-27 06:39:00,12.1,7.4,30.38,WNW,302,4.0,6.0,81,0.00,,,0.00,Wunderground v.1.15,2013-01-27 11:39:00,
2013-01-27 06:44:00,12.8,8.3,30.38,WNW,302,2.0,6.0,82,0.00,,,0.00,Wunderground v.1.15,2013-01-27 11:44:00,
2013-01-27 06:49:00,13.1,8.4,30.37,WNW,302,3.0,6.0,81,0.00,,,0.00,Wunderground v.1.15,2013-01-27 11:49:00,
2013-01-27 06:54:00,13.2,8.2,30.38,WNW,302,3.0,4.0,80,0.00,,,0.00,Wunderground v.1.15,2013-01-27 11:54:00,
2013-01-27 06:59:00,13.3,8.3,30.38,WNW,302,4.0,4.0,80,0.00,,,0.00,Wunderground v.1.15,2013-01-27 11:59:00,
2013-01-27 07:04:00,13.4,8.4,30.38,NW,306,5.0,5.0,80,0.00,,,0.00,Wunderground v.1.15,2013-01-27 12:04:00,
2013-01-27 07:09:00,13.5,8.5,30.38,NW,306,3.0,6.0,80,0.00,,,0.00,Wunderground v.1.15,2013-01-27 12:09:00,
2013-01-27 07:14:00,13.6,8.6,30.38,NW,306,2.0,5.0,80,0.00,,,0.00,Wunderground v.1.15,2013-01-27 12:14:00,
2013-01-27 07:19:00,13.5,8.5,30.39,NW,306,4.0,5.0,80,0.00,,,0.00,Wunderground v.1.15,2013-01-27 12:19:00,
2013-01-27 07:24:00,13.6,8.6,30.39,NW,306,3.0,5.0,80,0.00,,,0.00,Wunderground v.1.15,2013-01-27 12:24:00,
2013-01-27 07:29:00,13.7,8.7,30.39,NW,306,3.0,5.0,80,0.00,,,0.00,Wunderground v.1.15,2013-01-27 12:29:00,
2013-01-27 07:34:00,13.9,8.9,30.39,NW,306,2.0,6.0,80,0.00,,,0.00,Wunderground v.1.15,2013-01-27 12:34:00,
2013-01-27 07:39:00,14.0,9.0,30.40,NW,306,2.0,6.0,80,0.00,,,0.00,Wunderground v.1.15,2013-01-27 12:39:00,
2013-01-27 07:44:00,14.3,9.3,30.40,NW,317,3.0,5.0,80,0.00,,,0.00,Wunderground v.1.15,2013-01-27 12:44:00,
2013-01-27 07:49:00,14.7,9.4,30.40,NW,318,2.0,5.0,79,0.00,,,0.00,Wunderground v.1.15,2013-01-27 12:49:00,
2013-01-27 07:55:00,15.1,9.5,30.40,NW,318,2.0,4.0,78,0.00,,,0.00,Wunderground v.1.15,2013-01-27 12:55:00,
2013-01-27 08:00:00,15.4,9.8,30.40,NW,318,2.0,2.0,78,0.00,,,0.00,Wunderground v.1.15,2013-01-27 13:00:00,
2013-01-27 08:05:00,15.8,9.9,30.40,NW,318,2.0,4.0,77,0.00,,,0.00,Wunderground v.1.15,2013-01-27 13:05:00,
2013-01-27 08:10:00,15.7,9.5,30.40,NW,312,3.0,3.0,76,0.00,,,0.00,Wunderground v.1.15,2013-01-27 13:10:00,
2013-01-27 08:15:00,15.7,9.5,30.40,NW,312,1.0,3.0,76,0.00,,,0.00,Wunderground v.1.15,2013-01-27 13:15:00,
2013-01-27 08:20:00,16.1,9.9,30.41,NW,312,1.0,1.0,76,0.00,,,0.00,Wunderground v.1.15,2013-01-27 13:20:00,
2013-01-27 08:25:00,15.9,9.7,30.41,NW,312,3.0,4.0,76,0.00,,,0.00,Wunderground v.1.15,2013-01-27 13:25:00,
2013-01-27 08:30:00,15.8,9.6,30.41,NW,311,0.0,2.0,76,0.00,,,0.00,Wunderground v.1.15,2013-01-27 13:30:00,
2013-01-27 08:35:00,15.8,9.6,30.41,NW,311,1.0,4.0,76,0.00,,,0.00,Wunderground v.1.15,2013-01-27 13:35:00,
2013-01-27 08:40:00,15.9,10.0,30.41,NW,311,0.0,2.0,77,0.00,,,0.00,Wunderground v.1.15,2013-01-27 13:40:00,
2013-01-27 08:45:00,16.2,10.3,30.41,NW,315,3.0,5.0,77,0.00,,,0.00,Wunderground v.1.15,2013-01-27 13:45:00,
2013-01-27 08:50:00,16.7,10.4,30.41,NW,306,3.0,3.0,76,0.00,,,0.00,Wunderground v.1.15,2013-01-27 13:50:00,
2013-01-27 08:55:00,17.1,10.5,30.42,NW,311,2.0,6.0,75,0.00,,,0.00,Wunderground v.1.15,2013-01-27 13:55:00,
2013-01-27 09:00:00,17.5,10.6,30.42,NW,306,2.0,4.0,74,0.00,,,0.00,Wunderground v.1.15,2013-01-27 14:00:00,
2013-01-27 09:05:00,17.9,11.0,30.42,NW,323,3.0,7.0,74,0.00,,,0.00,Wunderground v.1.15,2013-01-27 14:05:00,
2013-01-27 09:11:00,18.5,11.3,30.42,NNW,348,5.0,5.0,73,0.00,,,0.00,Wunderground v.1.15,2013-01-27 14:11:00,
2013-01-27 09:16:00,19.1,11.2,30.42,NNW,340,7.0,8.0,71,0.00,,,0.00,Wunderground v.1.15,2013-01-27 14:16:00,
2013-01-27 09:21:00,19.4,11.2,30.42,WNW,293,3.0,6.0,70,0.00,,,0.00,Wunderground v.1.15,2013-01-27 14:21:00,
2013-01-27 09:26:00,19.7,11.5,30.43,NNW,328,4.0,7.0,70,0.00,,,0.00,Wunderground v.1.15,2013-01-27 14:26:00,
2013-01-27 09:31:00,20.0,11.5,30.43,NW,308,4.0,5.0,69,0.00,,,0.00,Wunderground v.1.15,2013-01-27 14:31:00,
2013-01-27 09:36:00,20.1,11.2,30.43,North,355,3.0,7.0,68,0.00,,,0.00,Wunderground v.1.15,2013-01-27 14:36:00,
2013-01-27 09:41:00,20.4,11.5,30.43,NW,324,6.0,7.0,68,0.00,,,0.00,Wunderground v.1.15,2013-01-27 14:41:00,
2013-01-27 09:46:00,20.6,11.0,30.43,NW,311,0.0,7.0,66,0.00,,,0.00,Wunderground v.1.15,2013-01-27 14:46:00,
2013-01-27 09:51:00,20.6,11.0,30.44,WNW,303,7.0,7.0,66,0.00,,,0.00,Wunderground v.1.15,2013-01-27 14:51:00,
2013-01-27 09:56:00,20.3,10.7,30.44,WNW,288,1.0,8.0,66,0.00,,,0.00,Wunderground v.1.15,2013-01-27 14:56:00,
2013-01-27 10:01:00,20.7,11.5,30.44,NW,318,0.0,6.0,67,0.00,,,0.00,Wunderground v.1.15,2013-01-27 15:01:00,
2013-01-27 10:06:00,21.0,11.1,30.45,WNW,301,2.0,7.0,65,0.00,,,0.00,Wunderground v.1.15,2013-01-27 15:06:00,
2013-01-27 10:11:00,21.1,11.2,30.45,NW,315,3.0,7.0,65,0.00,,,0.00,Wunderground v.1.15,2013-01-27 15:11:00,
2013-01-27 10:16:00,21.5,11.2,30.45,NW,312,4.0,7.0,64,0.00,,,0.00,Wunderground v.1.15,2013-01-27 15:16:00,
2013-01-27 10:21:00,21.4,11.1,30.45,NW,306,6.0,6.0,64,0.00,,,0.00,Wunderground v.1.15,2013-01-27 15:21:00,
2013-01-27 10:26:00,21.5,11.2,30.46,West,269,0.0,6.0,64,0.00,,,0.00,Wunderground v.1.15,2013-01-27 15:26:00,
2013-01-27 10:31:00,21.7,11.4,30.45,ENE,58,0.0,2.0,64,0.00,,,0.00,Wunderground v.1.15,2013-01-27 15:31:00,
2013-01-27 10:36:00,22.5,11.8,30.45,NNW,336,2.0,7.0,63,0.00,,,0.00,Wunderground v.1.15,2013-01-27 15:36:00,
2013-01-27 10:41:00,22.9,11.1,30.45,NW,304,1.0,5.0,60,0.00,,,0.00,Wunderground v.1.15,2013-01-27 15:41:00,
2013-01-27 10:46:00,23.2,11.4,30.46,North,360,0.0,5.0,60,0.00,,,0.00,Wunderground v.1.15,2013-01-27 15:46:00,
2013-01-27 10:51:00,23.4,11.2,30.46,WSW,239,8.0,8.0,59,0.00,,,0.00,Wunderground v.1.15,2013-01-27 15:51:00,
2013-01-27 10:56:00,23.0,10.4,30.46,NW,324,4.0,11.0,58,0.00,,,0.00,Wunderground v.1.15,2013-01-27 15:56:00,
2013-01-27 11:01:00,23.3,11.1,30.46,WSW,246,5.0,5.0,59,0.00,,,0.00,Wunderground v.1.15,2013-01-27 16:01:00,
2013-01-27 11:06:00,23.3,10.7,30.46,WSW,252,5.0,8.0,58,0.00,,,0.00,Wunderground v.1.15,2013-01-27 16:06:00,
2013-01-27 11:11:00,23.1,10.1,30.46,WNW,302,3.0,6.0,57,0.00,,,0.00,Wunderground v.1.15,2013-01-27 16:11:00,
2013-01-27 11:16:00,23.4,10.4,30.46,NW,311,8.0,9.0,57,0.00,,,0.00,Wunderground v.1.15,2013-01-27 16:16:00,
2013-01-27 11:21:00,23.7,10.3,30.45,WSW,239,4.0,5.0,56,0.00,,,0.00,Wunderground v.1.15,2013-01-27 16:21:00,
2013-01-27 11:26:00,23.8,10.4,30.45,WSW,240,0.0,8.0,56,0.00,,,0.00,Wunderground v.1.15,2013-01-27 16:26:00,
2013-01-27 11:31:00,24.3,10.4,30.45,WSW,239,3.0,5.0,55,0.00,,,0.00,Wunderground v.1.15,2013-01-27 16:31:00,
2013-01-27 11:36:00,24.7,11.2,30.45,WNW,288,5.0,8.0,56,0.00,,,0.00,Wunderground v.1.15,2013-01-27 16:36:00,
2013-01-27 11:41:00,25.1,10.8,30.45,WNW,298,0.0,3.0,54,0.00,,,0.00,Wunderground v.1.15,2013-01-27 16:41:00,
2013-01-27 11:46:00,25.3,10.5,30.45,West,267,2.0,4.0,53,0.00,,,0.00,Wunderground v.1.15,2013-01-27 16:46:00,
2013-01-27 11:52:00,25.6,10.0,30.44,South,185,0.0,6.0,51,0.00,,,0.00,Wunderground v.1.15,2013-01-27 16:52:00,
2013-01-27 11:57:00,25.9,10.2,30.44,WSW,255,2.0,9.0,51,0.00,,,0.00,Wunderground v.1.15,2013-01-27 16:57:00,
2013-01-27 12:02:00,26.0,9.9,30.44,WSW,240,2.0,8.0,50,0.00,,,0.00,Wunderground v.1.15,2013-01-27 17:02:00,
2013-01-27 12:07:00,26.0,9.9,30.44,WSW,248,1.0,8.0,50,0.00,,,0.00,Wunderground v.1.15,2013-01-27 17:07:00,
2013-01-27 12:12:00,26.3,9.7,30.43,WSW,253,3.0,6.0,49,0.00,,,0.00,Wunderground v.1.15,2013-01-27 17:12:00,
2013-01-27 12:17:00,26.4,9.8,30.43,NNW,336,2.0,8.0,49,0.00,,,0.00,Wunderground v.1.15,2013-01-27 17:17:00,
2013-01-27 12:22:00,27.0,9.4,30.43,NNW,329,0.0,6.0,47,0.00,,,0.00,Wunderground v.1.15,2013-01-27 17:22:00,
2013-01-27 12:27:00,27.4,9.3,30.43,NW,315,0.0,6.0,46,0.00,,,0.00,Wunderground v.1.15,2013-01-27 17:27:00,
2013-01-27 12:32:00,27.9,9.3,30.43,NNE,15,4.0,4.0,45,0.00,,,0.00,Wunderground v.1.15,2013-01-27 17:32:00,
2013-01-27 12:37:00,28.4,8.7,30.43,WNW,289,0.0,6.0,43,0.00,,,0.00,Wunderground v.1.15,2013-01-27 17:37:00,
2013-01-27 12:42:00,29.0,8.7,30.42,NNW,338,6.0,8.0,42,0.00,,,0.00,Wunderground v.1.15,2013-01-27 17:42:00,
2013-01-27 12:47:00,29.0,7.7,30.42,NNW,327,4.0,9.0,40,0.00,,,0.00,Wunderground v.1.15,2013-01-27 17:47:00,
2013-01-27 12:52:00,29.1,8.3,30.41,NW,309,6.0,7.0,41,0.00,,,0.00,Wunderground v.1.15,2013-01-27 17:52:00,
2013-01-27 12:57:00,28.9,7.0,30.41,NW,317,5.0,9.0,39,0.00,,,0.00,Wunderground v.1.15,2013-01-27 17:57:00,
2013-01-27 13:02:00,28.7,6.8,30.41,NNW,333,2.0,11.0,39,0.00,,,0.00,Wunderground v.1.15,2013-01-27 18:02:00,
2013-01-27 13:07:00,29.0,7.7,30.41,NW,321,1.0,11.0,40,0.00,,,0.00,Wunderground v.1.15,2013-01-27 18:07:00,
2013-01-27 13:12:00,29.3,7.4,30.41,NW,320,0.0,7.0,39,0.00,,,0.00,Wunderground v.1.15,2013-01-27 18:12:00,
2013-01-27 13:17:00,29.7,7.2,30.41,North,355,4.0,7.0,38,0.00,,,0.00,Wunderground v.1.15,2013-01-27 18:17:00,
2013-01-27 13:22:00,29.8,7.2,30.41,NNE,16,3.0,6.0,38,0.00,,,0.00,Wunderground v.1.15,2013-01-27 18:22:00,
2013-01-27 13:27:00,30.0,7.4,30.41,NW,324,5.0,6.0,38,0.00,,,0.00,Wunderground v.1.15,2013-01-27 18:27:00,
2013-01-27 13:32:00,30.1,6.3,30.41,NNW,345,0.0,7.0,36,0.00,,,0.00,Wunderground v.1.15,2013-01-27 18:32:00,
2013-01-27 13:37:00,30.1,6.3,30.41,NNE,33,6.0,8.0,36,0.00,,,0.00,Wunderground v.1.15,2013-01-27 18:37:00,
2013-01-27 13:42:00,30.0,6.2,30.40,North,355,6.0,9.0,36,0.00,,,0.00,Wunderground v.1.15,2013-01-27 18:42:00,
2013-01-27 13:47:00,29.9,6.1,30.41,NW,311,4.0,9.0,36,0.00,,,0.00,Wunderground v.1.15,2013-01-27 18:47:00,
2013-01-27 13:52:00,30.0,6.2,30.40,NNW,342,0.0,9.0,36,0.00,,,0.00,Wunderground v.1.15,2013-01-27 18:52:00,
2013-01-27 13:57:00,30.4,6.6,30.40,ENE,76,0.0,9.0,36,0.00,,,0.00,Wunderground v.1.15,2013-01-27 18:57:00,
2013-01-27 14:02:00,30.1,5.7,30.40,ESE,106,0.0,7.0,35,0.00,,,0.00,Wunderground v.1.15,2013-01-27 19:02:00,
2013-01-27 14:07:00,30.4,6.6,30.41,NE,34,1.0,7.0,36,0.00,,,0.00,Wunderground v.1.15,2013-01-27 19:07:00,
2013-01-27 14:12:00,30.5,6.1,30.41,WNW,286,4.0,8.0,35,0.00,,,0.00,Wunderground v.1.15,2013-01-27 19:12:00,
2013-01-27 14:17:00,30.3,5.9,30.41,NW,325,5.0,8.0,35,0.00,,,0.00,Wunderground v.1.15,2013-01-27 19:17:00,
2013-01-27 14:22:00,30.9,5.8,30.41,NW,311,0.0,4.0,34,0.00,,,0.00,Wunderground v.1.15,2013-01-27 19:22:00,
2013-01-27 14:27:00,31.2,5.4,30.41,WNW,289,5.0,8.0,33,0.00,,,0.00,Wunderground v.1.15,2013-01-27 19:27:00,
2013-01-27 14:32:00,30.8,5.0,30.41,NW,316,0.0,10.0,33,0.00,,,0.00,Wunderground v.1.15,2013-01-27 19:32:00,
2013-01-27 14:37:00,30.7,5.6,30.41,NNW,327,5.0,10.0,34,0.00,,,0.00,Wunderground v.1.15,2013-01-27 19:37:00,
2013-01-27 14:42:00,31.2,6.0,30.41,NW,326,6.0,6.0,34,0.00,,,0.00,Wunderground v.1.15,2013-01-27 19:42:00,
2013-01-27 14:47:00,31.5,5.7,30.41,WNW,292,3.0,8.0,33,0.00,,,0.00,Wunderground v.1.15,2013-01-27 19:47:00,
2013-01-27 14:52:00,31.4,4.9,30.40,WNW,296,5.0,8.0,32,0.00,,,0.00,Wunderground v.1.15,2013-01-27 19:52:00,
2013-01-27 14:58:00,30.8,5.7,30.40,NNE,19,3.0,8.0,34,0.00,,,0.00,Wunderground v.1.15,2013-01-27 19:58:00,
2013-01-27 15:02:00,30.7,4.9,30.40,NNE,19,0.0,5.0,33,0.00,,,0.00,Wunderground v.1.15,2013-01-27 20:02:00,
2013-01-27 15:08:00,30.9,5.8,30.40,NNE,19,0.0,5.0,34,0.00,,,0.00,Wunderground v.1.15,2013-01-27 20:08:00,
2013-01-27 15:13:00,31.1,5.3,30.40,NNE,20,0.0,2.0,33,0.00,,,0.00,Wunderground v.1.15,2013-01-27 20:13:00,
2013-01-27 15:18:00,31.2,5.4,30.41,NW,306,5.0,6.0,33,0.00,,,0.00,Wunderground v.1.15,2013-01-27 20:18:00,
2013-01-27 15:23:00,31.3,4.8,30.41,NW,311,6.0,7.0,32,0.00,,,0.00,Wunderground v.1.15,2013-01-27 20:23:00,
2013-01-27 15:28:00,31.4,4.9,30.40,NW,320,2.0,7.0,32,0.00,,,0.00,Wunderground v.1.15,2013-01-27 20:28:00,
2013-01-27 15:33:00,31.5,5.7,30.40,NNW,342,2.0,4.0,33,0.00,,,0.00,Wunderground v.1.15,2013-01-27 20:33:00,
2013-01-27 15:38:00,31.8,5.2,30.40,NW,315,3.0,6.0,32,0.00,,,0.00,Wunderground v.1.15,2013-01-27 20:38:00,
2013-01-27 15:43:00,31.8,5.2,30.40,WNW,287,2.0,6.0,32,0.00,,,0.00,Wunderground v.1.15,2013-01-27 20:43:00,
2013-01-27 15:48:00,31.6,5.1,30.40,WNW,287,0.0,6.0,32,0.00,,,0.00,Wunderground v.1.15,2013-01-27 20:48:00,
2013-01-27 15:53:00,31.5,5.0,30.40,North,11,0.0,2.0,32,0.00,,,0.00,Wunderground v.1.15,2013-01-27 20:53:00,
2013-01-27 15:58:00,31.3,4.8,30.41,NNE,23,0.0,4.0,32,0.00,,,0.00,Wunderground v.1.15,2013-01-27 20:58:00,
2013-01-27 16:03:00,31.4,4.9,30.40,NE,42,2.0,3.0,32,0.00,,,0.00,Wunderground v.1.15,2013-01-27 21:03:00,
2013-01-27 16:08:00,31.2,4.7,30.41,NNW,336,0.0,5.0,32,0.00,,,0.00,Wunderground v.1.15,2013-01-27 21:08:00,
2013-01-27 16:13:00,31.0,4.5,30.41,NNE,20,0.0,4.0,32,0.00,,,0.00,Wunderground v.1.15,2013-01-27 21:13:00,
2013-01-27 16:18:00,30.9,6.4,30.42,NNW,329,0.0,4.0,35,0.00,,,0.00,Wunderground v.1.15,2013-01-27 21:18:00,
2013-01-27 16:23:00,30.7,4.3,30.43,NW,313,1.0,5.0,32,0.00,,,0.00,Wunderground v.1.15,2013-01-27 21:23:00,
2013-01-27 16:28:00,30.4,4.7,30.43,NW,325,0.0,5.0,33,0.00,,,0.00,Wunderground v.1.15,2013-01-27 21:28:00,
2013-01-27 16:33:00,30.2,5.2,30.42,NNW,331,3.0,4.0,34,0.00,,,0.00,Wunderground v.1.15,2013-01-27 21:33:00,
2013-01-27 16:38:00,29.9,3.6,30.42,NNW,347,3.0,4.0,32,0.00,,,0.00,Wunderground v.1.15,2013-01-27 21:38:00,
2013-01-27 16:43:00,29.6,3.3,30.42,North,5,2.0,2.0,32,0.00,,,0.00,Wunderground v.1.15,2013-01-27 21:43:00,
2013-01-27 16:48:00,29.2,3.6,30.42,North,355,0.0,4.0,33,0.00,,,0.00,Wunderground v.1.15,2013-01-27 21:48:00,
2013-01-27 16:53:00,28.9,3.4,30.42,North,355,0.0,0.0,33,0.00,,,0.00,Wunderground v.1.15,2013-01-27 21:53:00,
2013-01-27 16:58:00,28.5,3.0,30.42,North,355,0.0,0.0,33,0.00,,,0.00,Wunderground v.1.15,2013-01-27 21:58:00,
2013-01-27 17:03:00,28.4,2.9,30.42,North,360,0.0,0.0,33,0.00,,,0.00,Wunderground v.1.15,2013-01-27 22:03:00,
2013-01-27 17:08:00,28.1,2.6,30.43,North,360,0.0,1.0,33,0.00,,,0.00,Wunderground v.1.15,2013-01-27 22:08:00,
2013-01-27 17:13:00,28.0,2.6,30.42,North,360,0.0,2.0,33,0.00,,,0.00,Wunderground v.1.15,2013-01-27 22:13:00,
2013-01-27 17:18:00,27.9,2.5,30.42,North,5,0.0,2.0,33,0.00,,,0.00,Wunderground v.1.15,2013-01-27 22:18:00,
2013-01-27 17:23:00,27.8,2.4,30.43,North,360,0.0,0.0,33,0.00,,,0.00,Wunderground v.1.15,2013-01-27 22:23:00,
2013-01-27 17:28:00,27.7,2.3,30.43,North,360,0.0,0.0,33,0.00,,,0.00,Wunderground v.1.15,2013-01-27 22:28:00,
2013-01-27 17:33:00,27.7,2.3,30.43,North,360,0.0,0.0,33,0.00,,,0.00,Wunderground v.1.15,2013-01-27 22:33:00,
2013-01-27 17:38:00,27.6,2.2,30.43,North,360,0.0,2.0,33,0.00,,,0.00,Wunderground v.1.15,2013-01-27 22:38:00,
2013-01-27 17:43:00,27.6,2.2,30.43,North,360,0.0,0.0,33,0.00,,,0.00,Wunderground v.1.15,2013-01-27 22:43:00,
2013-01-27 17:48:00,27.5,2.1,30.43,North,360,0.0,0.0,33,0.00,,,0.00,Wunderground v.1.15,2013-01-27 22:48:00,
2013-01-27 17:54:00,27.4,2.0,30.43,North,360,0.0,0.0,33,0.00,,,0.00,Wunderground v.1.15,2013-01-27 22:54:00,
2013-01-27 17:59:00,27.3,1.9,30.43,North,360,0.0,0.0,33,0.00,,,0.00,Wunderground v.1.15,2013-01-27 22:59:00,
2013-01-27 18:04:00,27.3,1.9,30.43,North,360,0.0,1.0,33,0.00,,,0.00,Wunderground v.1.15,2013-01-27 23:04:00,
2013-01-27 18:09:00,27.2,1.2,30.43,North,360,0.0,1.0,32,0.00,,,0.00,Wunderground v.1.15,2013-01-27 23:09:00,
2013-01-27 18:14:00,27.2,1.2,30.43,North,360,0.0,0.0,32,0.00,,,0.00,Wunderground v.1.15,2013-01-27 23:14:00,
2013-01-27 18:19:00,27.2,1.2,30.43,North,360,0.0,0.0,32,0.00,,,0.00,Wunderground v.1.15,2013-01-27 23:19:00,
2013-01-27 18:24:00,27.2,1.2,30.43,North,360,0.0,0.0,32,0.00,,,0.00,Wunderground v.1.15,2013-01-27 23:24:00,
2013-01-27 18:29:00,27.1,1.1,30.43,North,360,0.0,0.0,32,0.00,,,0.00,Wunderground v.1.15,2013-01-27 23:29:00,
2013-01-27 18:34:00,26.9,0.9,30.43,North,360,0.0,0.0,32,0.00,,,0.00,Wunderground v.1.15,2013-01-27 23:34:00,
2013-01-27 18:39:00,26.6,0.7,30.44,North,360,0.0,0.0,32,0.00,,,0.00,Wunderground v.1.15,2013-01-27 23:39:00,
2013-01-27 18:44:00,26.3,0.4,30.44,North,355,0.0,4.0,32,0.00,,,0.00,Wunderground v.1.15,2013-01-27 23:44:00,
2013-01-27 18:49:00,26.3,0.4,30.44,North,5,1.0,4.0,32,0.00,,,0.00,Wunderground v.1.15,2013-01-27 23:49:00,
2013-01-27 18:54:00,26.1,0.9,30.44,NNW,347,0.0,1.0,33,0.00,,,0.00,Wunderground v.1.15,2013-01-27 23:54:00,
2013-01-27 18:59:00,26.0,0.8,30.44,NNW,347,0.0,1.0,33,0.00,,,0.00,Wunderground v.1.15,2013-01-27 23:59:00,
2013-01-27 19:04:00,25.9,0.7,30.44,North,355,0.0,3.0,33,0.00,,,0.00,Wunderground v.1.15,2013-01-28 00:04:00,
2013-01-27 19:09:00,26.0,0.1,30.44,NNE,28,0.0,3.0,32,0.00,,,0.00,Wunderground v.1.15,2013-01-28 00:09:00,
2013-01-27 19:14:00,26.1,0.2,30.44,NNE,29,0.0,1.0,32,0.00,,,0.00,Wunderground v.1.15,2013-01-28 00:14:00,
2013-01-27 19:19:00,26.1,0.2,30.44,NNE,21,0.0,3.0,32,0.00,,,0.00,Wunderground v.1.15,2013-01-28 00:19:00,
2013-01-27 19:24:00,26.0,0.1,30.44,NNE,21,0.0,0.0,32,0.00,,,0.00,Wunderground v.1.15,2013-01-28 00:24:00,
2013-01-27 19:29:00,25.8,-0.1,30.44,NE,39,0.0,0.0,32,0.00,,,0.00,Wunderground v.1.15,2013-01-28 00:29:00,
2013-01-27 19:34:00,25.7,-0.1,30.45,NE,42,0.0,3.0,32,0.00,,,0.00,Wunderground v.1.15,2013-01-28 00:34:00,
2013-01-27 19:39:00,25.7,-0.1,30.45,NNE,30,0.0,4.0,32,0.00,,,0.00,Wunderground v.1.15,2013-01-28 00:39:00,
2013-01-27 19:44:00,25.5,-0.3,30.45,NNE,30,0.0,0.0,32,0.00,,,0.00,Wunderground v.1.15,2013-01-28 00:44:00,
2013-01-27 19:49:00,25.4,-0.4,30.44,NNE,24,1.0,3.0,32,0.00,,,0.00,Wunderground v.1.15,2013-01-28 00:49:00,
2013-01-27 19:54:00,25.3,-0.5,30.44,NNE,25,0.0,0.0,32,0.00,,,0.00,Wunderground v.1.15,2013-01-28 00:54:00,
2013-01-27 19:59:00,25.1,-0.7,30.44,NE,42,0.0,0.0,32,0.00,,,0.00,Wunderground v.1.15,2013-01-28 00:59:00,
2013-01-27 20:04:00,25.0,-0.8,30.44,NE,43,2.0,2.0,32,0.00,,,0.00,Wunderground v.1.15,2013-01-28 01:04:00,
2013-01-27 20:09:00,25.0,-0.8,30.44,ENE,63,1.0,2.0,32,0.00,,,0.00,Wunderground v.1.15,2013-01-28 01:09:00,
2013-01-27 20:14:00,24.8,-0.3,30.43,ENE,63,0.0,0.0,33,0.00,,,0.00,Wunderground v.1.15,2013-01-28 01:14:00,
2013-01-27 20:19:00,24.5,-0.5,30.44,ENE,63,0.0,0.0,33,0.00,,,0.00,Wunderground v.1.15,2013-01-28 01:19:00,
2013-01-27 20:24:00,24.3,-0.7,30.44,ENE,63,0.0,0.0,33,0.00,,,0.00,Wunderground v.1.15,2013-01-28 01:24:00,
2013-01-27 20:29:00,24.3,-0.7,30.44,ENE,63,0.0,0.0,33,0.00,,,0.00,Wunderground v.1.15,2013-01-28 01:29:00,
2013-01-27 20:35:00,24.1,0.3,30.44,ENE,63,0.0,0.0,35,0.00,,,0.00,Wunderground v.1.15,2013-01-28 01:35:00,
2013-01-27 20:40:00,23.9,0.2,30.44,ENE,63,0.0,0.0,35,0.00,,,0.00,Wunderground v.1.15,2013-01-28 01:40:00,
2013-01-27 20:45:00,23.9,0.2,30.44,ENE,63,0.0,0.0,35,0.00,,,0.00,Wunderground v.1.15,2013-01-28 01:45:00,
2013-01-27 20:50:00,23.8,0.7,30.44,ENE,63,0.0,0.0,36,0.00,,,0.00,Wunderground v.1.15,2013-01-28 01:50:00,
2013-01-27 20:55:00,23.6,0.5,30.44,ENE,62,0.0,2.0,36,0.00,,,0.00,Wunderground v.1.15,2013-01-28 01:55:00,
2013-01-27 21:00:00,23.5,0.4,30.44,ENE,62,0.0,0.0,36,0.00,,,0.00,Wunderground v.1.15,2013-01-28 02:00:00,
2013-01-27 21:05:00,23.5,0.4,30.44,ENE,62,0.0,1.0,36,0.00,,,0.00,Wunderground v.1.15,2013-01-28 02:05:00,
2013-01-27 21:10:00,23.3,0.2,30.44,ENE,63,0.0,0.0,36,0.00,,,0.00,Wunderground v.1.15,2013-01-28 02:10:00,
2013-01-27 21:15:00,23.1,0.1,30.44,ENE,62,0.0,0.0,36,0.00,,,0.00,Wunderground v.1.15,2013-01-28 02:15:00,
2013-01-27 21:20:00,23.0,0.6,30.44,ENE,62,0.0,0.0,37,0.00,,,0.00,Wunderground v.1.15,2013-01-28 02:20:00,
2013-01-27 21:25:00,22.7,0.3,30.44,ENE,62,0.0,0.0,37,0.00,,,0.00,Wunderground v.1.15,2013-01-28 02:25:00,
2013-01-27 21:30:00,22.6,0.2,30.44,ENE,63,0.0,0.0,37,0.00,,,0.00,Wunderground v.1.15,2013-01-28 02:30:00,
2013-01-27 21:35:00,22.4,0.0,30.44,ENE,63,2.0,3.0,37,0.00,,,0.00,Wunderground v.1.15,2013-01-28 02:35:00,
2013-01-27 21:40:00,22.3,0.5,30.44,ENE,63,0.0,1.0,38,0.00,,,0.00,Wunderground v.1.15,2013-01-28 02:40:00,
2013-01-27 21:45:00,22.3,0.5,30.44,ENE,63,0.0,1.0,38,0.00,,,0.00,Wunderground v.1.15,2013-01-28 02:45:00,
2013-01-27 21:50:00,22.2,0.4,30.43,ENE,63,0.0,0.0,38,0.00,,,0.00,Wunderground v.1.15,2013-01-28 02:50:00,
2013-01-27 21:55:00,22.0,0.2,30.43,ENE,63,0.0,1.0,38,0.00,,,0.00,Wunderground v.1.15,2013-01-28 02:55:00,
2013-01-27 22:00:00,21.7,1.1,30.44,ENE,63,0.0,0.0,40,0.00,,,0.00,Wunderground v.1.15,2013-01-28 03:00:00,
2013-01-27 22:05:00,21.7,0.0,30.44,ENE,63,0.0,0.0,38,0.00,,,0.00,Wunderground v.1.15,2013-01-28 03:05:00,
2013-01-27 22:10:00,21.9,0.1,30.44,ENE,63,0.0,0.0,38,0.00,,,0.00,Wunderground v.1.15,2013-01-28 03:10:00,
2013-01-27 22:15:00,22.0,0.2,30.43,ENE,63,0.0,0.0,38,0.00,,,0.00,Wunderground v.1.15,2013-01-28 03:15:00,
2013-01-27 22:20:00,22.0,0.2,30.43,ENE,63,0.0,0.0,38,0.00,,,0.00,Wunderground v.1.15,2013-01-28 03:20:00,
2013-01-27 22:25:00,21.9,0.1,30.43,ENE,63,0.0,0.0,38,0.00,,,0.00,Wunderground v.1.15,2013-01-28 03:25:00,
2013-01-27 22:31:00,21.8,0.0,30.43,ENE,63,1.0,2.0,38,0.00,,,0.00,Wunderground v.1.15,2013-01-28 03:31:00,
2013-01-27 22:36:00,21.6,-0.1,30.42,ENE,63,2.0,3.0,38,0.00,,,0.00,Wunderground v.1.15,2013-01-28 03:36:00,
2013-01-27 22:41:00,21.5,0.3,30.42,ENE,63,4.0,5.0,39,0.00,,,0.00,Wunderground v.1.15,2013-01-28 03:41:00,
2013-01-27 22:46:00,21.3,0.7,30.42,ENE,62,3.0,5.0,40,0.00,,,0.00,Wunderground v.1.15,2013-01-28 03:46:00,
2013-01-27 22:51:00,21.3,0.1,30.42,ENE,61,2.0,3.0,39,0.00,,,0.00,Wunderground v.1.15,2013-01-28 03:51:00,
2013-01-27 22:56:00,21.3,0.1,30.43,NE,39,5.0,5.0,39,0.00,,,0.00,Wunderground v.1.15,2013-01-28 03:56:00,
2013-01-27 23:01:00,21.5,-0.2,30.43,ENE,61,2.0,3.0,38,0.00,,,0.00,Wunderground v.1.15,2013-01-28 04:01:00,
2013-01-27 23:06:00,21.3,0.1,30.43,ENE,61,0.0,3.0,39,0.00,,,0.00,Wunderground v.1.15,2013-01-28 04:06:00,
2013-01-27 23:11:00,21.2,-0.5,30.43,ENE,61,0.0,1.0,38,0.00,,,0.00,Wunderground v.1.15,2013-01-28 04:11:00,
2013-01-27 23:16:00,21.3,-0.4,30.42,ENE,61,0.0,1.0,38,0.00,,,0.00,Wunderground v.1.15,2013-01-28 04:16:00,
2013-01-27 23:21:00,21.2,-0.5,30.43,ENE,61,0.0,0.0,38,0.00,,,0.00,Wunderground v.1.15,2013-01-28 04:21:00,
2013-01-27 23:26:00,21.0,-0.1,30.42,ENE,61,0.0,0.0,39,0.00,,,0.00,Wunderground v.1.15,2013-01-28 04:26:00,
2013-01-27 23:31:00,20.8,-0.3,30.42,ENE,61,0.0,0.0,39,0.00,,,0.00,Wunderground v.1.15,2013-01-28 04:31:00,
2013-01-27 23:36:00,21.0,-0.7,30.43,ENE,61,0.0,2.0,38,0.00,,,0.00,Wunderground v.1.15,2013-01-28 04:36:00,
2013-01-27 23:41:00,20.9,-0.2,30.43,ENE,61,0.0,0.0,39,0.00,,,0.00,Wunderground v.1.15,2013-01-28 04:41:00,
2013-01-27 23:46:00,20.7,-0.9,30.44,ENE,61,0.0,0.0,38,0.00,,,0.00,Wunderground v.1.15,2013-01-28 04:46:00,
2013-01-27 23:51:00,20.5,-1.1,30.44,ENE,61,0.0,0.0,38,0.00,,,0.00,Wunderground v.1.15,2013-01-28 04:51:00,
2013-01-27 23:56:00,20.3,-0.8,30.44,ENE,61,0.0,0.0,39,0.00,,,0.00,Wunderground v.1.15,2013-01-28 04:56:00,